1494655200.94,85,13.94,73190.3,0.77,-1.79,-1.83,0,*75
1494655202.09,86,13.94,73188.3,0.73,-1.59,-1.59,0,*77
1494655203.27,87,13.94,73190.3,0.73,-1.55,-1.47,0,*75
1494655204.46,88,13.94,73192.0,0.73,-1.33,-1.35,0,*7F
1494655205.62,89,13.94,73190.0,0.73,-1.21,-1.33,0,*7B
1494655206.78,90,13.94,73190.3,0.73,-1.21,-1.25,0,*74
1494655207.99,91,13.94,73190.5,0.73,-1.99,-2.47,0,*71
1494655209.15,92,13.94,73190.5,0.73,-4.37,-4.61,0,*71
1494655210.36,93,13.94,73186.8,0.67,-4.45,-4.85,0,*7A
1494655211.55,94,14.0,73190.3,0.67,-4.13,-4.49,0,*7E
1494655212.76,95,14.0,73192.3,0.63,-3.71,-3.95,0,*7E
1494655213.97,96,13.94,73188.0,0.63,-3.59,-3.95,0,*77
1494655215.18,97,14.0,73192.0,0.63,-3.35,-3.63,0,*75
1494655216.39,98,14.0,73190.3,0.63,-3.31,-3.59,0,*77
1494655217.56,99,13.94,73188.8,0.61,-3.23,-3.47,0,*78
1494655218.75,100,13.94,73188.0,0.59,-3.11,-3.35,0,*46
1494655219.94,101,13.94,73190.3,0.59,-3.03,-3.23,0,*43
1494655221.12,102,14.0,73194.5,0.59,-2.99,-3.23,0,*42
1494655222.31,103,13.94,73190.5,0.59,-2.87,-3.15,0,*49
1494655223.49,104,13.94,73186.8,0.59,-2.87,-3.15,0,*4E
1494655224.68,105,13.94,73190.5,0.59,-2.79,-3.11,0,*4A
1494655225.9,106,14.0,73190.5,0.59,-2.75,-3.11,0,*45
1494655227.12,107,13.94,73188.3,0.59,-2.63,-2.99,0,*42
1494655228.31,108,13.94,73186.0,0.57,-2.63,-2.91,0,*4B
1494655229.49,109,14.0,73186.8,0.57,-2.55,-2.83,0,*4C
1494655230.69,110,13.94,73188.8,0.57,-2.63,-2.95,0,*46
1494655231.88,111,13.94,73190.3,0.57,-2.63,-2.91,0,*43
1494655233.07,112,13.94,73190.8,0.57,-2.63,-3.03,0,*4A
                                                                                                                                                                                                                                                                                                                                                                                                                                                                                                                                                                                                                                                                                                                                                                                                                                                                                                                                                                                                                            1494655320.57,185,13.94,73188.5,0.65,-1.05,-1.17,0,*41
1494655321.81,186,13.94,73190.3,0.63,-1.09,-1.13,0,*4C
1494655323.05,187,13.94,73190.8,0.63,-1.01,-1.09,0,*4E
1494655324.29,188,13.88,73188.8,0.63,-1.01,-1.09,0,*41
1494655325.49,189,13.94,73186.8,0.65,-0.93,-0.97,0,*4A
1494655326.69,190,13.94,73188.3,0.65,-0.89,-0.93,0,*4D
1494655327.92,191,13.94,73192.0,0.63,-0.97,-0.97,0,*41
1494655329.12,192,13.94,73190.0,0.65,-0.97,-0.97,0,*44
1494655330.32,193,13.94,73190.3,0.65,-0.93,-0.93,0,*45
1494655331.52,194,13.94,73188.5,0.65,-0.93,-0.93,0,*42
1494655332.7,195,13.94,73190.0,0.65,-0.81,-0.93,0,*40
1494655333.91,196,13.94,73190.3,0.65,-0.97,-1.05,0,*7A
1494655335.08,197,13.88,73186.0,0.65,-1.55,-1.67,0,*40
1494655336.24,198,13.94,73188.3,0.65,-1.51,-1.63,0,*4F
1494655337.43,199,13.94,73192.8,0.67,-1.51,-1.63,0,*4C
1494655338.62,200,13.94,73190.0,0.67,-1.67,-1.67,0,*4E
1494655339.85,201,13.88,73188.3,0.65,-1.39,-1.43,0,*40
1494655341.07,202,13.94,73186.3,0.65,-1.39,-1.43,0,*43
1494655342.26,203,13.94,73190.0,0.65,-1.33,-1.43,0,*48
1494655343.43,204,13.88,73190.0,0.65,-1.21,-1.29,0,*40
1494655344.62,205,13.94,73190.8,0.63,-1.25,-1.33,0,*48
1494655345.82,206,13.94,73188.3,0.67,-1.17,-1.21,0,*4D
1494655347.04,207,13.88,73190.3,0.67,-1.09,-1.17,0,*46
1494655348.26,208,13.88,73188.3,0.67,-1.05,-1.17,0,*45
1494655349.47,209,13.94,73192.5,0.65,-1.09,-1.09,0,*45
1494655350.63,210,13.94,73188.8,0.65,-1.21,-1.33,0,*4E
1494655351.81,211,13.94,73188.3,0.65,-1.17,-1.21,0,*49
1494655353.03,212,13.94,73188.3,0.65,-1.39,-1.43,0,*42
1494655354.25,213,13.94,73188.5,0.67,-1.33,-1.43,0,*4B
1494655355.45,214,13.94,73194.5,0.65,-1.05,-1.17,0,*4A
1494655356.64,215,13.94,73192.5,0.65,-0.93,-0.97,0,*4C
1494655357.85,216,13.94,73192.5,0.65,-0.89,-0.93,0,*40
1494655359.06,217,13.94,73188.3,0.65,-0.97,-1.09,0,*7C
1494655360.26,218,13.94,73190.0,0.67,-1.17,-1.21,0,*42
1494655361.48,219,13.94,73188.8,0.67,-1.09,-1.17,0,*49
1494655362.7,220,13.94,73188.0,0.67,-1.05,-1.17,0,*4F
1494655363.93,221,13.94,73192.0,0.67,-0.93,-1.05,0,*73
1494655365.18,222,13.94,73194.3,0.67,-0.89,-1.05,0,*7B
1494655366.42,223,13.88,73188.3,0.67,-0.89,-1.05,0,*7A
1494655367.63,224,13.94,73190.5,0.67,-0.81,-0.97,0,*4F
1494655368.79,225,13.94,73190.8,0.69,-1.17,-1.25,0,*46
1494655370.04,226,13.88,73188.8,0.67,-0.97,-1.05,0,*70
1494655371.25,227,13.94,73188.8,0.67,-0.81,-0.93,0,*48
1494655372.45,228,13.94,73192.0,0.69,-0.85,-0.89,0,*46
1494655373.68,229,13.94,73194.0,0.67,-0.89,-0.97,0,*4A
1494655374.92,230,13.94,73192.3,0.67,-0.93,-1.05,0,*73
1494655376.15,231,13.88,73188.3,0.67,-0.89,-0.93,0,*47
1494655377.36,232,13.94,73190.3,0.67,-0.81,-0.89,0,*47
1494655378.52,233,13.94,73190.0,0.69,-0.77,-0.77,0,*40
1494655379.73,234,13.94,73190.3,0.67,-0.81,-0.89,0,*41
1494655380.96,235,13.88,73190.0,0.67,-0.89,-0.97,0,*47
1494655382.17,236,13.88,73190.0,0.67,-0.81,-0.93,0,*48
1494655383.39,237,13.88,73190.5,0.67,-3.59,-3.79,0,*48
1494655384.59,238,13.94,73192.8,0.67,-3.03,-3.27,0,*43
1494655385.77,239,13.94,73192.8,0.65,-2.67,-2.91,0,*4F
1494655387.02,240,13.88,73188.0,0.63,-2.47,-2.63,0,*48
1494655388.24,241,13.94,73194.5,0.63,-2.11,-2.31,0,*4D
1494655389.46,242,13.88,73188.8,0.61,-1.87,-2.11,0,*42
1494655390.69,243,13.94,73192.3,0.59,-1.99,-2.23,0,*46
1494655391.91,244,13.88,73190.0,0.61,-1.83,-2.07,0,*47
1494655393.13,245,13.94,73194.3,0.61,-1.95,-2.11,0,*46
1494655394.33,246,13.94,73194.3,0.61,-1.71,-1.87,0,*43
1494655395.51,247,13.94,73194.8,0.59,-2.27,-2.27,0,*40
1494655396.68,248,13.94,73194.5,0.61,-2.35,-2.35,0,*44
1494655397.92,249,13.94,73194.0,0.59,-2.51,-2.75,0,*48
1494655399.11,250,13.94,73192.3,0.57,-2.43,-2.67,0,*4E
1494655400.3,251,13.88,73192.0,0.57,-2.39,-2.55,0,*43
1494655401.46,252,13.88,73190.3,0.57,-2.31,-2.43,0,*4F
1494655402.63,253,13.94,73194.0,0.57,-2.31,-2.43,0,*4E
1494655403.82,254,13.88,73190.5,0.55,-2.27,-2.31,0,*49
1494655405.03,255,13.88,73192.5,0.55,-2.07,-2.27,0,*4D
1494655406.22,256,13.88,73190.5,0.57,-1.91,-2.15,0,*41
1494655407.44,257,13.94,73192.5,0.55,-1.79,-2.07,0,*47
1494655408.63,258,13.94,73194.5,0.55,-1.67,-1.79,0,*4D
1494655409.79,259,13.88,73194.5,0.57,-1.51,-1.75,0,*47
1494655410.98,260,13.88,73192.0,0.59,-1.59,-1.71,0,*4F
1494655412.15,261,13.94,73194.0,0.57,-1.63,-1.79,0,*41
1494655413.31,262,13.94,73198.5,0.57,-1.63,-1.75,0,*4E
1494655414.47,263,13.94,73196.5,0.57,-1.63,-1.75,0,*4F
1494655415.63,264,13.94,73194.0,0.57,-1.51,-1.63,0,*4E
1494655416.82,265,13.94,73194.3,0.57,-1.43,-1.55,0,*49
1494655418.04,266,13.88,73194.5,0.57,-1.39,-1.43,0,*40
1494655419.24,267,13.94,73198.8,0.57,-1.29,-1.39,0,*4D
1494655420.41,268,13.94,73198.0,0.57,-1.17,-1.21,0,*46
1494655421.65,269,13.88,73194.8,0.59,-1.05,-1.13,0,*4B
1494655422.9,270,13.88,73194.8,0.59,-1.05,-1.05,0,*44
1494655424.13,271,13.88,73194.8,0.59,-0.97,-1.01,0,*7B
1494655425.37,272,13.94,73198.0,0.59,-0.89,-1.05,0,*73
1494655426.61,273,13.88,73194.8,0.59,-0.97,-1.05,0,*7D
1494655427.85,274,13.88,73194.5,0.59,-0.89,-1.05,0,*75
1494655429.05,275,13.88,73194.3,0.61,-0.93,-1.01,0,*70
1494655430.26,276,13.88,73192.0,0.61,-0.97,-0.97,0,*49
1494655431.5,277,13.94,73196.3,0.59,-0.89,-1.01,0,*72
1494655432.72,278,13.88,73192.0,0.59,-0.85,-0.97,0,*4F
1494655433.91,279,13.88,73194.3,0.61,-0.73,-0.85,0,*4F
1494655435.14,280,13.94,73198.5,0.59,-0.85,-0.85,0,*4B
1494655436.32,281,13.94,73198.3,0.61,-0.73,-0.85,0,*48
1494655437.52,282,13.88,73192.5,0.59,-0.65,-0.85,0,*47
1494655438.68,283,13.88,73192.5,0.61,-0.81,-0.81,0,*43
1494655439.85,284,13.88,73194.8,0.61,-0.73,-0.73,0,*44
1494655441.01,285,13.94,73198.3,0.61,-0.69,-0.81,0,*43
1494655442.2,286,13.88,73194.5,0.63,-0.69,-0.73,0,*4F
1494655443.37,287,13.88,73194.0,0.63,-0.61,-0.81,0,*4B
1494655444.56,288,13.94,73192.8,0.63,-0.69,-0.73,0,*41
1494655445.74,289,13.88,73192.0,0.63,-0.61,-0.73,0,*48
1494655446.91,290,13.88,73190.0,0.63,-0.61,-0.61,0,*43
1494655448.09,291,13.88,73194.0,0.63,-0.49,-0.61,0,*48
1494655449.27,292,13.94,73198.3,0.63,-0.49,-0.49,0,*41
1494655450.45,293,13.88,73190.8,0.63,-0.49,-0.57,0,*4F
1494655451.61,294,13.94,73192.8,0.65,-0.45,-0.57,0,*42
1494655452.79,295,13.94,73192.5,0.63,-0.45,-0.45,0,*46
1494655453.98,296,13.94,73194.5,0.63,-0.37,-0.37,0,*45
1494655455.13,297,13.88,73192.3,0.65,-0.33,-0.33,0,*42
1494655456.31,298,13.88,73192.5,0.63,-0.37,-0.45,0,*4E
1494655457.47,299,13.88,73190.8,0.65,-0.33,-0.41,0,*49
1494655458.65,300,13.88,73192.3,0.63,-0.33,-0.33,0,*4B
1494655459.81,301,13.88,73194.3,0.65,-0.29,-0.33,0,*47
1494655460.99,302,13.88,73190.8,0.63,-0.33,-0.37,0,*4D
1494655462.15,303,13.88,73194.3,0.65,-0.33,-0.33,0,*4E
1494655463.36,304,13.88,73192.5,0.63,-0.27,-0.37,0,*4E
1494655464.53,305,13.88,73192.5,0.65,-0.23,-0.29,0,*42
1494655465.74,306,13.88,73192.8,0.65,-0.23,-0.23,0,*4B
1494655466.91,307,13.88,73192.5,0.65,-0.23,-0.29,0,*40
1494655468.11,308,13.88,73192.3,0.65,-0.23,-0.23,0,*45
1494655469.29,309,13.94,73192.5,0.65,-0.19,-0.23,0,*4D
1494655470.48,310,13.88,73188.0,0.65,-0.11,-0.23,0,*4D
1494655471.64,311,13.88,73190.0,0.65,-0.11,-0.19,0,*45
1494655472.8,312,13.88,73188.0,0.65,-0.11,-0.19,0,*46
1494655473.99,313,13.88,73188.0,0.67,-0.11,-0.11,0,*4D
1494655475.19,314,13.88,73192.3,0.67,-0.11,-0.11,0,*4A
1494655476.38,315,13.88,73190.0,0.67,-0.11,-0.11,0,*4B
1494655477.56,316,13.88,73194.3,0.67,-0.07,-0.11,0,*7F
1494655478.75,317,13.94,73194.8,0.67,-0.07,-0.11,0,*7E
1494655479.92,318,13.88,73192.0,0.67,-0.07,-0.07,0,*46
1494655481.08,319,13.88,73192.0,0.69,-0.03,-0.15,0,*7E
1494655482.27,320,13.88,73194.8,0.67,-0.07,-0.11,0,*7A
1494655483.42,321,13.88,73194.3,0.69,-0.03,-0.07,0,*46
1494655484.57,322,13.88,73194.0,0.69,-0.03,-0.07,0,*45
1494655485.72,323,13.88,73196.3,0.69,-0.03,-0.07,0,*44
1494655486.87,324,13.88,73196.3,0.69,-0.03,-0.07,0,*43
1494655488.02,325,13.88,73196.3,0.69,-0.03,-0.03,0,*46
1494655489.16,326,13.88,73198.0,0.69,0.01,-0.03,0,*6A
1494655490.3,327,13.88,73198.0,0.69,-0.03,0.01,0,*6B
1494655491.45,328,13.88,73194.5,0.69,-0.03,-0.03,0,*4B
1494655492.6,329,13.88,73196.3,0.69,-0.03,0.01,0,*65
1494655493.78,330,13.88,73198.5,0.67,-0.03,-0.07,0,*48
1494655494.91,331,13.88,73192.8,0.69,0.01,0.01,0,*43
1494655496.05,332,13.88,73194.5,0.69,0.09,0.09,0,*40
1494655497.19,333,13.88,73194.3,0.69,0.09,0.09,0,*41
1494655498.33,334,13.88,73192.5,0.73,0.05,0.01,0,*49
1494655499.47,335,13.88,73196.8,0.73,0.05,0.05,0,*4C
1494655500.61,336,13.88,73198.3,0.73,0.05,0.05,0,*4F
1494655501.74,337,13.88,73192.5,0.73,0.01,0.05,0,*4A
1494655502.89,338,13.88,73192.0,0.73,0.05,0.05,0,*41
1494655504.07,339,13.88,73192.3,0.73,0.13,0.13,0,*40
1494655505.22,340,13.88,73194.5,0.77,0.09,0.09,0,*4A
1494655506.36,341,13.88,73192.3,0.73,0.09,0.05,0,*43
1494655507.52,342,13.88,73192.3,0.73,0.17,0.05,0,*7F
1494655508.7,343,13.88,73192.8,0.73,0.17,0.17,0,*4D
1494655509.9,344,13.88,73192.3,0.77,0.17,0.17,0,*4E
1494655511.08,345,13.88,73192.8,0.73,0.17,0.13,0,*4F
1494655512.27,346,13.88,73196.0,0.73,0.13,0.17,0,*4C
1494655513.46,347,13.88,73194.8,0.77,0.17,0.17,0,*4D
1494655514.65,348,13.88,73196.3,0.73,0.21,0.17,0,*43
1494655515.85,349,13.88,73192.3,0.77,0.13,0.13,0,*43
1494655517.04,350,13.88,73194.0,0.77,0.17,0.17,0,*4B
1494655518.24,351,13.88,73198.0,0.77,0.17,0.17,0,*4A
1494655519.39,352,13.88,73194.5,0.77,0.09,0.09,0,*49
1494655520.53,353,13.88,73192.3,0.73,0.05,0.09,0,*40
1494655521.68,354,13.88,73194.3,0.77,0.09,0.09,0,*4F
1494655522.83,355,13.88,73192.8,0.77,0.09,0.05,0,*42
1494655523.99,356,13.88,73194.0,0.77,0.09,0.09,0,*4D
1494655525.16,357,13.88,73192.3,0.77,0.17,0.09,0,*73
1494655526.33,358,13.88,73194.3,0.77,0.17,0.09,0,*7C
1494655527.52,359,13.88,73194.5,0.73,0.13,0.13,0,*46
1494655528.69,360,13.88,73194.0,0.77,0.09,0.17,0,*77
1494655529.87,361,13.88,73194.3,0.77,0.17,0.05,0,*7A
1494655531.02,362,13.88,73194.3,0.77,0.09,0.09,0,*4A
1494655532.19,363,13.88,73192.0,0.77,-0.65,-0.41,0,*4D
1494655533.36,364,13.88,73194.5,0.77,-0.19,-0.19,0,*4C
1494655534.51,365,13.88,73194.8,0.77,0.01,0.01,0,*4D
1494655535.65,366,13.88,73194.0,0.77,0.01,0.01,0,*4E
1494655536.85,367,13.88,73196.0,0.79,0.17,0.05,0,*72
1494655538.0,368,13.88,73194.5,0.77,0.09,0.05,0,*4C
1494655539.18,369,13.88,73196.8,0.79,0.09,0.09,0,*4F
1494655540.38,370,13.88,73192.3,0.79,-0.57,-0.45,0,*44
1494655541.55,371,13.88,73198.3,0.77,-0.57,-0.53,0,*4C
1494655542.72,372,13.88,73196.3,0.77,-0.45,-0.33,0,*4A
1494655543.92,373,13.88,73196.0,0.73,-0.23,-0.27,0,*4A
1494655545.1,374,13.88,73198.0,0.77,-0.11,-0.11,0,*4D
1494655546.25,375,13.88,73196.8,0.77,-0.07,-0.07,0,*4C
1494655547.39,376,13.88,73194.8,0.73,0.01,-0.07,0,*60
1494655548.54,377,13.88,73192.5,0.77,-0.07,0.01,0,*65
1494655549.7,378,13.88,73196.8,0.73,-0.11,-0.03,0,*76
1494655550.85,379,13.88,73194.3,0.73,-0.03,-0.11,0,*77
1494655552.02,380,13.88,73194.5,0.77,-0.11,-0.07,0,*71
1494655553.2,381,13.88,73194.0,0.77,-0.11,-0.11,0,*47
1494655554.37,382,13.88,73198.3,0.77,-0.11,-0.11,0,*44
1494655555.54,383,13.88,73192.5,0.77,-0.07,-0.15,0,*76
1494655556.7,384,13.88,73194.8,0.73,-0.11,-0.11,0,*46
1494655557.86,385,13.88,73194.3,0.73,-0.11,-0.03,0,*74
1494655559.01,386,13.88,73196.8,0.73,-0.03,-0.03,0,*44
1494655560.15,387,13.88,73194.8,0.73,-0.03,-0.03,0,*45
1494655561.3,388,13.88,73194.8,0.77,0.01,0.01,0,*4E
1494655562.47,389,13.88,73198.8,0.77,-0.15,-0.11,0,*4B
1494655563.62,390,13.88,73192.5,0.73,-0.03,-0.03,0,*43
1494655564.76,391,13.88,73192.0,0.73,-0.03,-0.03,0,*42
1494655565.91,392,13.88,73194.5,0.73,-0.03,-0.03,0,*41
1494655567.06,393,13.88,73194.5,0.77,-0.07,0.01,0,*6F
1494655568.21,394,13.88,73198.3,0.77,0.01,-0.03,0,*6C
1494655569.36,395,13.88,73196.8,0.77,0.01,-0.07,0,*69
1494655570.5,396,13.88,73194.5,0.77,0.01,0.01,0,*41
1494655571.65,397,13.88,73194.8,0.73,-0.03,-0.03,0,*44
1494655572.8,398,13.88,73192.5,0.73,-0.03,-0.03,0,*4B
1494655573.97,399,13.88,73192.3,0.77,-0.03,-0.11,0,*7D
1494655575.12,400,13.88,73192.5,0.73,-0.03,-0.03,0,*4D
1494655576.3,401,13.88,73194.3,0.73,-1.13,-1.33,0,*4E
1494655577.52,402,13.88,73192.3,0.73,-1.99,-2.11,0,*4C
1494655578.69,403,13.88,73196.3,0.73,-2.19,-2.23,0,*47
1494655579.85,404,13.88,73190.3,0.73,-1.55,-1.59,0,*45
1494655581.07,405,13.88,73194.5,0.69,-1.35,-1.47,0,*46
1494655582.24,406,13.88,73194.3,0.69,-1.17,-1.17,0,*40
1494655583.4,407,13.88,73192.5,0.69,-0.77,-0.73,0,*45
1494655584.59,408,13.88,73192.3,0.67,-0.57,-0.57,0,*40
1494655585.78,409,13.88,73192.0,0.67,-0.41,-0.41,0,*41
1494655586.97,410,13.88,73192.3,0.67,-0.33,-0.33,0,*49
1494655588.17,411,13.88,73192.8,0.67,-0.29,-0.27,0,*46
1494655589.35,412,13.88,73192.0,0.67,-0.33,-0.29,0,*40
1494655590.56,413,13.88,73196.0,0.69,-0.27,-0.27,0,*44
1494655591.71,414,13.88,73192.0,0.73,-0.15,-0.15,0,*48
1494655592.9,415,13.88,73194.0,0.69,-0.19,-0.27,0,*4F
1494655594.08,416,13.88,73192.3,0.69,-0.19,-0.27,0,*4C
1494655595.24,417,13.88,73192.8,0.73,-0.15,-0.15,0,*4B
1494655596.43,418,13.88,73190.5,0.69,-0.23,-0.19,0,*46
1494655597.59,419,13.88,73194.8,0.69,-0.19,-0.19,0,*4E
1494655598.75,420,13.88,73192.0,0.69,-0.15,-0.19,0,*48
1494655599.93,421,13.88,73194.3,0.69,-0.15,-0.27,0,*44
1494655601.09,422,13.88,73194.3,0.69,-0.19,-0.19,0,*46
1494655602.3,423,13.88,73194.5,0.69,-0.27,-0.27,0,*47
1494655603.48,424,13.88,73192.3,0.69,-0.19,-0.27,0,*4D
1494655604.65,425,13.88,73194.0,0.69,-0.19,-0.19,0,*41
1494655605.81,426,13.88,73192.8,0.69,-0.15,-0.19,0,*4E
1494655606.97,427,13.88,73194.8,0.69,-0.15,-0.15,0,*43
1494655608.12,428,13.88,73194.0,0.69,-0.07,-0.07,0,*4C
1494655609.27,429,13.88,73192.0,0.73,-0.03,-0.03,0,*46
1494655610.41,430,13.88,73194.0,0.73,-0.03,-0.03,0,*4E
1494655611.57,431,13.88,73192.8,0.73,-0.11,-0.03,0,*7C
1494655612.72,432,13.88,73194.0,0.69,-0.07,-0.07,0,*47
1494655613.87,433,13.88,73192.5,0.69,-0.15,-0.07,0,*75
1494655615.02,434,13.88,73192.3,0.73,-0.03,-0.03,0,*4A
1494655616.15,435,13.88,73190.3,0.73,0.01,-0.03,0,*64
1494655617.3,436,13.88,73190.5,0.77,0.05,0.01,0,*48
1494655618.44,437,13.88,73192.3,0.73,0.01,-0.03,0,*66
1494655619.59,438,13.88,73188.8,0.77,0.05,0.01,0,*46
1494655620.74,439,13.88,73190.8,0.77,0.05,0.01,0,*47
1494655621.88,440,13.88,73194.5,0.77,0.01,0.01,0,*4D
1494655623.02,441,13.88,73192.3,0.77,0.01,0.01,0,*4C
1494655624.19,442,13.88,73190.8,0.77,-0.33,-0.57,0,*4D
1494655625.38,443,13.88,73190.5,0.73,-2.71,-2.95,0,*40
1494655626.57,444,13.88,73192.5,0.77,-3.23,-3.55,0,*48
1494655627.76,445,13.88,73192.3,0.69,-3.39,-3.67,0,*4C
1494655628.97,446,13.88,73194.8,0.67,-3.35,-3.55,0,*4C
1494655630.16,447,13.88,73192.5,0.67,-2.83,-3.03,0,*42
1494655631.35,448,13.88,73190.3,0.67,-3.19,-3.35,0,*4A
1494655632.52,449,13.88,73192.0,0.65,-2.95,-3.15,0,*4E
1494655633.71,450,13.88,73194.0,0.65,-2.71,-3.03,0,*4B
1494655634.87,451,13.88,73190.8,0.65,-2.83,-3.07,0,*43
1494655636.09,452,13.88,73192.3,0.63,-2.43,-2.63,0,*49
1494655637.28,453,13.88,73192.5,0.65,-2.31,-2.55,0,*4E
1494655638.5,454,13.88,73192.0,0.63,-2.31,-2.47,0,*4C
1494655639.75,455,13.88,73192.5,0.63,-1.99,-2.11,0,*4F
1494655641.0,456,13.88,73194.0,0.63,-1.95,-2.07,0,*47
1494655642.22,457,13.88,73194.3,0.61,-1.87,-2.07,0,*47
1494655643.41,458,13.88,73190.0,0.61,-1.75,-1.83,0,*4A
1494655644.66,459,13.88,73192.3,0.63,-1.43,-1.47,0,*44
1494655645.82,460,13.88,73192.0,0.65,-1.21,-1.25,0,*48
1494655647.01,461,13.88,73192.3,0.63,-1.25,-1.33,0,*4C
1494655648.18,462,13.88,73196.0,0.61,-1.21,-1.33,0,*49
1494655649.39,463,13.88,73192.8,0.61,-0.97,-1.13,0,*76
1494655650.62,464,13.88,73192.8,0.63,-0.85,-0.97,0,*4D
1494655651.84,465,13.88,73194.3,0.63,-0.85,-0.85,0,*4F
1494655653.04,466,13.88,73192.3,0.63,-0.73,-0.73,0,*4C
1494655654.22,467,13.88,73192.5,0.63,-0.73,-0.81,0,*40
1494655655.38,468,13.88,73194.0,0.65,-0.69,-0.69,0,*44
1494655656.53,469,13.88,73192.5,0.65,-0.57,-0.65,0,*44
1494655657.71,470,13.88,73192.5,0.63,-0.61,-0.69,0,*43
1494655658.86,471,13.88,73194.0,0.65,-0.53,-0.57,0,*48
1494655660.02,472,13.88,73192.0,0.65,-0.57,-0.57,0,*4F
1494655661.17,473,13.88,73192.8,0.65,-0.57,-0.65,0,*4F
1494655662.33,474,13.88,73194.0,0.65,-0.57,-0.57,0,*49
1494655663.48,475,13.88,73192.3,0.65,-0.53,-0.57,0,*4C
1494655664.68,476,13.88,73196.0,0.65,-1.21,-1.39,0,*42
1494655665.84,477,13.88,73192.0,0.65,-2.15,-2.27,0,*4B
1494655667.06,478,13.88,73198.5,0.65,-1.91,-2.07,0,*49
1494655668.25,479,13.88,73198.3,0.65,-1.71,-1.95,0,*4E
1494655669.4,480,13.88,73196.5,0.65,-1.51,-1.55,0,*46
1494655670.6,481,13.88,73194.5,0.63,-2.31,-2.35,0,*41
1494655671.77,482,13.88,73194.3,0.65,-2.31,-2.31,0,*40
1494655672.96,483,13.88,73194.8,0.63,-2.19,-2.23,0,*4E
1494655674.2,484,13.88,73192.8,0.63,-1.87,-1.95,0,*43
1494655675.39,485,13.88,73196.8,0.63,-1.67,-1.71,0,*46
1494655676.58,486,13.88,73196.0,0.59,-1.51,-1.59,0,*43
1494655677.77,487,13.88,73192.8,0.61,-1.47,-1.59,0,*4E
1494655678.99,488,13.88,73190.0,0.61,-1.35,-1.43,0,*4F
1494655680.19,489,13.88,73194.0,0.61,-1.21,-1.35,0,*4A
1494655681.38,490,13.88,73194.5,0.61,-1.09,-1.21,0,*4D
1494655682.59,491,13.88,73194.8,0.59,-1.13,-1.25,0,*48
1494655683.79,492,13.88,73194.5,0.61,-1.25,-1.39,0,*48
1494655684.98,493,13.88,73192.5,0.63,-1.21,-1.33,0,*45
1494655686.22,494,13.88,73192.5,0.63,-1.01,-1.01,0,*41
1494655687.45,495,13.88,73192.3,0.63,-0.85,-0.85,0,*40
1494655688.64,496,13.88,73192.0,0.63,-0.73,-0.81,0,*4E
1494655689.8,497,13.88,73192.8,0.61,-0.73,-0.73,0,*40
1494655690.97,498,13.88,73192.5,0.61,-0.73,-0.73,0,*4F
1494655692.13,499,13.88,73194.5,0.65,-0.69,-0.69,0,*4A
1494655693.32,500,13.88,73192.8,0.63,-0.73,-0.73,0,*4D
1494655694.47,501,13.88,73192.5,0.65,-0.69,-0.69,0,*4A
1494655695.65,502,13.88,73194.5,0.63,-0.61,-0.69,0,*47
1494655696.82,503,13.88,73194.8,0.63,-0.61,-0.61,0,*4E
1494655697.98,504,13.88,73192.3,0.65,-0.57,-0.57,0,*4F
1494655699.16,505,13.88,73190.0,0.63,-0.81,-0.81,0,*48
1494655700.32,506,13.88,73190.3,0.65,-0.77,-0.81,0,*44
1494655701.53,507,13.88,73192.5,0.63,-0.73,-0.85,0,*43
1494655702.7,508,13.88,73192.3,0.63,-0.61,-0.69,0,*4D
1494655703.88,509,13.88,73194.0,0.63,-0.57,-0.61,0,*41
1494655705.04,510,13.88,73192.5,0.65,-0.53,-0.53,0,*4A
1494655706.19,511,13.88,73194.8,0.65,-0.57,-0.65,0,*4A
1494655707.37,512,13.88,73196.0,0.63,-0.61,-0.69,0,*46
1494655708.52,513,13.88,73192.5,0.65,-0.57,-0.65,0,*48
1494655709.68,514,13.88,73188.8,0.65,-0.57,-0.57,0,*4E
1494655710.83,515,13.88,73194.0,0.65,-0.57,-0.57,0,*4F
1494655711.99,516,13.88,73194.0,0.65,-0.45,-0.53,0,*4B
1494655713.14,517,13.88,73194.8,0.65,-0.45,-0.57,0,*4E
1494655714.3,518,13.88,73196.0,0.65,-0.45,-0.45,0,*42
1494655715.45,519,13.88,73192.0,0.65,-0.45,-0.45,0,*43
1494655716.61,520,13.88,73194.3,0.65,-0.69,-0.65,0,*45
1494655717.78,521,13.88,73192.0,0.65,-0.93,-0.81,0,*4B
1494655718.94,522,13.88,73192.5,0.65,-0.69,-0.69,0,*4B
1494655720.09,523,13.88,73192.5,0.65,-0.57,-0.65,0,*4B
1494655721.24,524,13.88,73194.8,0.65,-0.61,-0.61,0,*4D
1494655722.39,525,13.88,73194.0,0.65,-0.53,-0.65,0,*49
1494655723.58,526,13.88,73194.8,0.67,-0.53,-0.45,0,*4A
1494655724.74,527,13.88,73196.8,0.69,-0.41,-0.41,0,*42
1494655725.9,528,13.88,73192.5,0.65,-0.33,-0.41,0,*44
1494655727.09,529,13.88,73192.0,0.67,-0.41,-0.45,0,*46
1494655728.28,530,13.88,73194.3,0.67,-0.41,-0.45,0,*4E
1494655729.44,531,13.88,73192.0,0.69,-0.37,-0.37,0,*45
1494655730.64,532,13.88,73190.5,0.67,-0.41,-0.41,0,*48
1494655731.84,533,13.88,73188.8,0.67,-0.41,-0.41,0,*49
1494655733.03,534,13.88,73186.5,0.67,-0.41,-0.41,0,*4E
1494655734.22,535,13.88,73184.0,0.67,-0.41,-0.45,0,*4B
1494655735.41,536,13.88,73186.3,0.67,-0.41,-0.33,0,*49
1494655736.61,537,13.88,73188.0,0.67,-0.41,-0.41,0,*4D
1494655737.8,538,13.88,73192.0,0.67,-0.33,-0.41,0,*47
1494655738.98,539,13.88,73188.0,0.67,-0.29,-0.45,0,*49
1494655740.14,540,13.88,73190.0,0.69,-0.29,-0.37,0,*4C
1494655741.31,541,13.88,73190.8,0.67,-0.29,-0.29,0,*4C
1494655742.5,542,13.88,73192.5,0.67,-0.33,-0.41,0,*4A
1494655743.69,543,13.88,73192.0,0.67,-0.29,-0.33,0,*45
1494655744.92,544,13.88,73194.0,0.67,-0.23,-0.23,0,*49
1494655746.1,545,13.88,73190.8,0.69,-0.19,-0.27,0,*4B
1494655747.27,546,13.88,73192.0,0.69,-0.19,-0.19,0,*45
1494655748.44,547,13.88,73194.8,0.67,-0.29,-0.29,0,*4A
1494655749.62,548,13.88,73192.0,0.67,-0.29,-0.29,0,*45
1494655750.83,549,13.88,73194.0,0.69,-0.27,-0.27,0,*4A
1494655752.02,550,13.88,73194.3,0.67,-0.33,-0.41,0,*49
1494655753.2,551,13.88,73192.3,0.67,-0.29,-0.33,0,*46
1494655754.38,552,13.88,73192.0,0.69,-0.27,-0.29,0,*4E
1494655755.56,553,13.88,73196.5,0.67,-0.29,-0.33,0,*44
1494655756.74,554,13.88,73192.5,0.69,-0.27,-0.29,0,*48
1494655757.93,555,13.88,73190.8,0.67,-0.29,-0.33,0,*42
1494655759.11,556,13.88,73192.8,0.67,-0.29,-0.41,0,*44
1494655760.3,557,13.88,73192.5,0.67,-0.33,-0.33,0,*4B
1494655761.45,558,13.88,73196.0,0.69,-0.37,-0.29,0,*45
1494655762.61,559,13.88,73194.8,0.69,-0.29,-0.29,0,*4B
1494655763.79,560,13.88,73196.3,0.69,-0.19,-0.27,0,*4C
1494655764.95,561,13.88,73198.0,0.69,-0.19,-0.15,0,*4C
1494655766.14,562,13.88,73196.3,0.69,-0.15,-0.27,0,*42
1494655767.34,563,13.88,73194.5,0.67,-0.23,-0.29,0,*46
1494655768.55,564,13.88,73192.8,0.67,-0.23,-0.33,0,*4A
1494655769.72,565,13.88,73194.5,0.69,-0.19,-0.19,0,*44
1494655770.9,566,13.88,73190.8,0.69,-0.15,-0.27,0,*46
1494655772.06,567,13.88,73194.0,0.69,-0.15,-0.15,0,*46
1494655773.21,568,13.88,73192.5,0.69,-0.07,-0.07,0,*49
1494655774.36,569,13.88,73190.8,0.69,-0.07,-0.07,0,*48
1494655775.51,570,13.88,73194.0,0.69,-0.03,-0.07,0,*44
1494655776.67,571,13.88,73192.8,0.69,-0.03,-0.15,0,*76
1494655777.82,572,13.88,73194.5,0.69,-0.03,-0.07,0,*46
1494655778.97,573,13.88,73192.0,0.69,-0.03,-0.07,0,*47
1494655780.11,574,13.88,73192.8,0.69,0.01,-0.07,0,*6F
1494655781.26,575,13.88,73190.3,0.69,-0.03,-0.07,0,*41
1494655782.4,576,13.88,73194.3,0.69,0.01,-0.03,0,*69
1494655783.61,577,13.88,73192.0,0.69,-0.27,-0.27,0,*47